Weather History for Nausori, Fiji

Change the Weather History Date:

Sunday, January 28, 2001

  Actual Average Record
Temperature  
Mean Temperature 81 °F -  
Max Temperature 89 °F - - ()
Min Temperature 73 °F - - ()
Cooling Degree Days 16    
Growing Degree Days 31 (Base 50)    
Moisture  
Dew Point 74 °F    
Average Humidity 81    
Maximum Humidity 94    
Minimum Humidity 58    
Precipitation  
Precipitation 0.00 in - - ()
Sea Level Pressure  
Sea Level Pressure 29.81 in    
Wind  
Wind Speed 0 mph ()    
Max Wind Speed 7 mph    
Max Gust Speed -    
T = Trace of Precipitation, MM = Missing Value Source: Averaged Metar Reports

Daily Weather History Graph

Daily Weather History Graph

Search for Another Location

Airport:

Trip Planner

Search our weather history database for the weather conditions in past years. The results will help you decide how hot, cold, wet, or windy it might be!

Date:

Astronomy

Jan. 28, 2001 Rise Set
Actual Time 5:50 AM FJT 6:46 PM FJT
Civil Twilight 5:26 AM FJT 7:10 PM FJT
Nautical Twilight 4:59 AM FJT 7:37 PM FJT
Astronomical Twilight 4:31 AM FJT 8:05 PM FJT
Moon 8:30 AM FJT (1/28) 9:16 PM FJT (1/28)
Length of Visible Light 13h 43m
Length of Day
12h 56m
Waxing Crescent, 10% of the Moon is Illuminated
Jan 28
Waxing Crescent
Feb 2
First Quarter
Feb 8
Full
Feb 15
Last Quarter
Feb 23
New

Hourly Weather History & Observations

Time (FJT) Temp. Heat Index Dew Point Humidity Pressure Visibility Wind Dir Wind Speed Gust Speed Precip Events Conditions
12:00 AM 75.2 °F - 73.4 °F 94% 29.83 in 24.9 mi Calm Calm - N/A   Partly Cloudy
1:00 AM 75.2 °F - 73.4 °F 94% 29.80 in 24.9 mi West 2.3 mph - N/A   Partly Cloudy
2:00 AM 75.2 °F - 73.4 °F 94% 29.80 in 24.9 mi Calm Calm - N/A   Scattered Clouds
3:00 AM 73.4 °F - 71.6 °F 94% 29.80 in 24.9 mi Calm Calm - N/A   Partly Cloudy
4:00 AM 73.4 °F - 71.6 °F 94% 29.80 in 24.9 mi Calm Calm - N/A   Partly Cloudy
5:00 AM 73.4 °F - 71.6 °F 94% 29.80 in 24.9 mi Calm Calm - N/A   Partly Cloudy
6:00 AM 75.2 °F - 73.4 °F 94% 29.80 in 31.1 mi Calm Calm - N/A   Partly Cloudy
7:00 AM 75.2 °F - 73.4 °F 94% 29.83 in 31.1 mi Calm Calm - N/A   Partly Cloudy
8:00 AM 80.6 °F 85.4 °F 73.4 °F 79% 29.83 in 31.1 mi Calm Calm - N/A   Partly Cloudy
9:00 AM 82.4 °F 89.5 °F 75.2 °F 79% 29.83 in 31.1 mi Calm Calm - N/A   Mostly Cloudy
10:00 AM 84.2 °F 90.9 °F 73.4 °F 70% 29.83 in 31.1 mi Calm Calm - N/A   Mostly Cloudy
11:00 AM 86.0 °F 93.4 °F 73.4 °F 66% 29.80 in 31.1 mi Calm Calm - N/A   Scattered Clouds
12:00 PM 87.8 °F 95.6 °F 73.4 °F 62% 29.80 in 31.1 mi Calm Calm - N/A   Scattered Clouds
1:00 PM 87.8 °F 95.6 °F 73.4 °F 62% 29.80 in 31.1 mi Calm Calm - N/A   Scattered Clouds
2:00 PM 89.6 °F 98.2 °F 73.4 °F 59% 29.77 in 31.1 mi Calm Calm - N/A   Scattered Clouds
3:00 PM 87.8 °F 93.8 °F 71.6 °F 58% 29.77 in 31.1 mi Calm Calm - N/A   Mostly Cloudy
4:00 PM 87.8 °F 93.8 °F 71.6 °F 58% 29.77 in 31.1 mi Calm Calm - N/A   Scattered Clouds
5:00 PM 86.0 °F 93.4 °F 73.4 °F 66% 29.74 in 31.1 mi ESE 6.9 mph - N/A   Scattered Clouds
6:00 PM 84.2 °F 90.9 °F 73.4 °F 70% 29.77 in 31.1 mi ESE 6.9 mph - N/A   Scattered Clouds
7:00 PM 82.4 °F 90.9 °F 77.0 °F 84% 29.80 in 31.1 mi Calm Calm - N/A   Scattered Clouds
7:38 PM 80.6 °F 87.1 °F 77.0 °F 89% 29.83 in 24.9 mi Calm Calm - N/A Thunderstorm Light Thunderstorm
8:00 PM 80.6 °F 88.1 °F 78.8 °F 94% 29.83 in 24.9 mi Calm Calm - N/A Thunderstorm Light Thunderstorm
9:00 PM 78.8 °F - 77.0 °F 94% 29.83 in 24.9 mi Calm Calm - N/A Thunderstorm Light Thunderstorm
10:00 PM 78.8 °F - 77.0 °F 94% 29.86 in 24.9 mi Calm Calm - N/A   Mostly Cloudy
11:00 PM 78.8 °F - 77.0 °F 94% 29.83 in 24.9 mi Calm Calm - N/A   Mostly Cloudy